Showing default

SPHEREX, 63182

Orbit data source: Space-Track

SPHEREX, 63182 is an American payload satellite in SSO that was launched on Wed, 12 Mar 2025 UTC via an FALCON 9 launch vehicle from the Air Force Western Test Range (AFWTR). Payload-class satellites include a variety of spacecraft equipped with specific instruments for various scientific and technological missions. These include communications satellites like Starlink; space stations such as the ISS; scientific satellites like the Hubble; Earth observation satellites from companies like Planet Labs, Umbra, and HawkEye 360; GPS; miniature CubeSats for education and research; and military/defense satellites.

Loading next visibility...
Identifier
63182, 2025-047E
Orbit
SSO
Country
Flag of USUS
Related business
Manufacturer
SWRI
Mission
Operational Civil Astronomy
Bus & Motor
PUNCH, Unknown motor
Mass
64 kg wet, 64 kg dry
Launch date (UTC)
2025-03-12 (9 months ago)
Launch vehicle
FALCON 9
Launch site
Air Force Western Test Range (AFWTR)
Object type
Payload
Rocket body
Debris
Shape & HBR
Box + 1 Pan, 2.7 m
Radar Cross Section
0.625 m², Large (>1 m²)

Expand to show TLE details & history
Last TLE update: 12 hours ago

TLE from 12 hours ago
0 SPHEREX
1 63182U 25047E   25351.51014670  .00001112  00000-0  17840-3 0  9996
2 63182  97.9519 174.7550 0011581  59.2029 301.0317 14.73554288 41281
Epoch: 2025-12-17T12:14Z
TLE epoch observation values (Epoch: 2025-12-17T12:14:36.674Z)
Latitude
-0.00012°
Longitude
-95.27676°
Altitude
648.566 km
Speed
7.536 km/s
True Right ascension
11h 39m 01s
True Declination
0° 00' 00"
Sunlit
Object was in daylight at epoch
Visualization orbit readout
Latitude
Unknown
Longitude
Unknown
Altitude
Unknown
Speed
Unknown
Apparent Right ascension
Unknown
Apparent Declination
Unknown
Sunlit
N/A
Visualization observer readout
Local Sidereal Time
22:50:22
Azimuth
Unknown
Elevation
Unknown
Doppler factor
Unknown
Orbital elements
Apogee altitude
654.932 km
Perigee altitude
638.66 km
Semi-major axis
7,024.933 km
Eccentricity
0.00116
Inclination
97.9519°
RAAN
174.755°
Arg. of periapsis
59.2029°
True anomaly
300.9179°
Mean anomaly
301.0317°
Eccentric anomaly
300.97481°
Mean motion
3.68621 °/min
Orbital period
97.66 mins
BSTAR
0.0001784
Loading maneuver chart data...
Computing Atmospheric mass density...
Loading historical data...
Loading historical data...
Loading historical data...
Loading historical data...
Loading historical data...
Loading historical data...
Loading historical data...
Other satellites on launch #47 in the year 2025 (2025-03-12 UTC)

Documentation

Showing up to 5 results
|